TimeCDT,TemperatureF,Dew PointF,Humidity,Sea Level PressureIn,VisibilityMPH,Wind Direction,Wind SpeedMPH,Gust SpeedMPH,PrecipitationIn,Events,Conditions,WindDirDegrees,DateUTC
12:53 AM,32.0,28.9,88,29.81,10.0,NE,13.8,-,N/A,,Overcast,40,2013-03-16 05:53:00
1:53 AM,32.0,28.9,88,29.79,10.0,NE,13.8,-,0.00,,Overcast,40,2013-03-16 06:53:00
2:53 AM,30.9,28.0,89,29.80,10.0,NNE,13.8,21.9,N/A,,Overcast,30,2013-03-16 07:53:00
3:53 AM,30.9,28.0,89,29.79,10.0,NE,16.1,-,N/A,,Overcast,40,2013-03-16 08:53:00
4:53 AM,30.9,28.0,89,29.79,3.0,NE,12.7,-,N/A,,Overcast,40,2013-03-16 09:53:00
5:03 AM,30.2,28.4,93,29.75,2.5,ENE,10.4,-,N/A,,Overcast,60,2013-03-16 10:03:00
5:20 AM,30.2,28.4,93,29.77,3.0,NE,11.5,-,N/A,,Overcast,40,2013-03-16 10:20:00
5:53 AM,30.9,28.0,89,29.81,3.0,NNE,10.4,-,N/A,,Overcast,30,2013-03-16 10:53:00
6:09 AM,30.2,28.4,93,29.79,2.5,NNE,11.5,-,N/A,,Overcast,30,2013-03-16 11:09:00
6:53 AM,30.0,27.0,88,29.84,2.5,NNE,12.7,-,N/A,,Overcast,20,2013-03-16 11:53:00
7:14 AM,30.2,26.6,86,29.82,1.5,NNE,12.7,-,N/A,,Overcast,30,2013-03-16 12:14:00
7:53 AM,30.0,27.0,88,29.86,1.5,NNE,12.7,-,N/A,,Overcast,20,2013-03-16 12:53:00
8:00 AM,30.2,26.6,86,29.84,2.0,NNE,11.5,-,N/A,,Overcast,20,2013-03-16 13:00:00
8:53 AM,28.9,26.1,89,29.89,2.0,NNE,16.1,21.9,N/A,,Overcast,20,2013-03-16 13:53:00
9:53 AM,28.9,26.1,89,29.94,4.0,NNE,9.2,18.4,N/A,,Overcast,20,2013-03-16 14:53:00
10:05 AM,28.4,24.8,86,29.92,0.8,North,12.7,19.6,0.00,Snow,Light Snow,360,2013-03-16 15:05:00
10:34 AM,28.4,24.8,86,29.94,3.0,North,10.4,-,0.00,,Overcast,360,2013-03-16 15:34:00
10:53 AM,28.0,24.1,85,29.98,3.0,North,13.8,-,0.00,,Overcast,350,2013-03-16 15:53:00
11:53 AM,27.0,23.0,85,30.01,4.0,NNW,9.2,-,N/A,,Haze,340,2013-03-16 16:53:00
12:53 PM,28.0,23.0,81,30.03,5.0,North,10.4,-,N/A,,Haze,360,2013-03-16 17:53:00
1:53 PM,28.9,23.0,78,30.02,5.0,NNE,5.8,-,N/A,,Haze,20,2013-03-16 18:53:00
2:53 PM,30.0,23.0,75,30.01,10.0,North,8.1,-,N/A,,Overcast,10,2013-03-16 19:53:00
3:53 PM,30.9,23.0,72,30.04,10.0,NW,5.8,-,N/A,,Overcast,310,2013-03-16 20:53:00
4:53 PM,30.0,21.9,72,30.04,10.0,ENE,3.5,-,N/A,,Overcast,70,2013-03-16 21:53:00
5:53 PM,30.0,21.9,72,30.04,10.0,Calm,Calm,-,N/A,,Overcast,0,2013-03-16 22:53:00
6:00 PM,30.2,21.2,69,30.02,10.0,Calm,Calm,-,N/A,,Overcast,0,2013-03-16 23:00:00
6:53 PM,28.9,21.9,75,30.06,10.0,ESE,5.8,-,N/A,,Overcast,110,2013-03-16 23:53:00
7:53 PM,28.9,21.9,75,30.08,10.0,ESE,3.5,-,N/A,,Overcast,110,2013-03-17 00:53:00
8:53 PM,28.9,21.9,75,30.10,10.0,Calm,Calm,-,N/A,,Overcast,0,2013-03-17 01:53:00
9:53 PM,28.9,19.9,69,30.12,10.0,WNW,5.8,-,N/A,,Overcast,300,2013-03-17 02:53:00
10:25 PM,28.4,19.4,69,30.10,10.0,WNW,6.9,-,N/A,,Overcast,290,2013-03-17 03:25:00
10:53 PM,28.9,19.0,67,30.13,10.0,WNW,5.8,-,N/A,,Overcast,290,2013-03-17 03:53:00
11:53 PM,28.9,19.9,69,30.14,10.0,West,6.9,-,N/A,,Overcast,280,2013-03-17 04:53:00